Location: Berville
(49.1893°N, 2.0748°E)
Time: 18:22:13
(UTC+00:00)

Cosmos 1244 Rocket - Pass Details

Date: 08 February 2023
Orbit: 952 x 998 km, 83.0° (Epoch: 29 March)

Event Time Altitude Azimuth Distance (km) Brightness Sun altitude
Rises 17:35:54 0° 351° (N) 3,723 7.5 -6.5°
Reaches altitude 10° 17:38:28 10° 353° (N) 2,765 6.8 -6.9°
Maximum altitude 17:44:49 76° 80° (E) 1,017 4.5 -7.9°
Drops below altitude 10° 17:51:03 10° 166° (SSE) 2,716 6.8 -8.9°
Sets 17:53:33 0° 168° (SSE) 3,652 7.5 -9.2°
